TimeCET,TemperatureF,Dew PointF,Humidity,Sea Level PressureIn,VisibilityMPH,Wind Direction,Wind SpeedMPH,Gust SpeedMPH,PrecipitationIn,Events,Conditions,WindDirDegrees,DateUTC
12:00 AM,43,34,62,29.12,28,SSW,17.9,,,,Overcast,210,2014-02-08 23:00:00
12:25 AM,42.8,33.8,70,29.12,6.2,SSW,19.6,31.1,N/A,,Overcast,210,2014-02-08 23:25:00
12:55 AM,44.6,35.6,71,29.12,6.2,SSW,18.4,-,N/A,,Overcast,210,2014-02-08 23:55:00
1:00 AM,44,35,62,29.13,13,SSW,20.1,,,Rain,Light Drizzle,210,2014-02-09 00:00:00
1:10 AM,42.8,35.6,76,29.12,6.2,SW,18.4,-,N/A,,Drizzle,220,2014-02-09 00:10:00
1:25 AM,42.8,37.4,81,29.12,6.2,SSW,17.3,31.1,N/A,Rain,Drizzle,210,2014-02-09 00:25:00
1:43 AM,42.8,37.4,81,29.12,6.2,SSW,19.6,32.2,N/A,,Light Drizzle,210,2014-02-09 00:43:00
1:55 AM,42.8,37.4,81,29.12,6.2,SSW,19.6,33.4,N/A,,Light Drizzle,210,2014-02-09 00:55:00
2:00 AM,42,37,76,29.14,8,SSW,17.9,,,Rain,Drizzle,210,2014-02-09 01:00:00
2:25 AM,42.8,37.4,81,29.12,6.2,SSW,18.4,-,N/A,,Mostly Cloudy,210,2014-02-09 01:25:00
2:37 AM,42.8,37.4,81,29.12,6.2,SSW,19.6,-,N/A,,Mostly Cloudy,200,2014-02-09 01:37:00
2:39 AM,42.8,37.4,81,29.12,6.2,SSW,18.4,-,N/A,,Overcast,210,2014-02-09 01:39:00
2:55 AM,42.8,37.4,81,29.12,6.2,SSW,18.4,-,N/A,,Overcast,210,2014-02-09 01:55:00
3:00 AM,43,36,70,29.13,18,SSW,17.9,,,Rain,Drizzle,210,2014-02-09 02:00:00
3:02 AM,42.8,35.6,76,29.12,6.2,SSW,18.4,-,N/A,,Overcast,210,2014-02-09 02:02:00
3:09 AM,42.8,35.6,76,29.12,6.2,SSW,19.6,-,N/A,,Mostly Cloudy,210,2014-02-09 02:09:00
3:17 AM,42.8,35.6,76,29.12,6.2,SSW,18.4,-,N/A,,Mostly Cloudy,210,2014-02-09 02:17:00
3:25 AM,42.8,35.6,76,29.12,6.2,SSW,18.4,34.5,N/A,,Mostly Cloudy,210,2014-02-09 02:25:00
3:55 AM,44.6,35.6,71,29.12,6.2,SW,20.7,-,N/A,,Overcast,220,2014-02-09 02:55:00
4:00 AM,44,36,64,29.14,17,SW,17.9,,,,Partly Cloudy,220,2014-02-09 03:00:00
4:25 AM,44.6,35.6,71,29.12,6.2,SW,18.4,32.2,N/A,,Overcast,220,2014-02-09 03:25:00
4:55 AM,44.6,35.6,71,29.12,6.2,SSW,19.6,32.2,N/A,,Overcast,210,2014-02-09 03:55:00
5:00 AM,44,34,59,29.15,17,SSW,20.1,,,,Partly Cloudy,210,2014-02-09 04:00:00
5:25 AM,42.8,33.8,70,29.15,6.2,SSW,19.6,-,N/A,,Overcast,210,2014-02-09 04:25:00
5:55 AM,42.8,33.8,70,29.15,6.2,SSW,18.4,31.1,N/A,,Overcast,210,2014-02-09 04:55:00
6:00 AM,43,34,61,29.16,22,SW,20.1,,,,Partly Cloudy,220,2014-02-09 05:00:00
6:25 AM,42.8,33.8,70,29.15,6.2,SSW,19.6,33.4,N/A,,Mostly Cloudy,210,2014-02-09 05:25:00
6:55 AM,42.8,33.8,70,29.15,6.2,SSW,20.7,33.4,N/A,,Overcast,210,2014-02-09 05:55:00
7:00 AM,43,33,59,29.17,22,SSW,20.1,,,,Partly Cloudy,210,2014-02-09 06:00:00
7:25 AM,42.8,33.8,70,29.15,6.2,SSW,23.0,35.7,N/A,,Overcast,210,2014-02-09 06:25:00
7:55 AM,42.8,33.8,70,29.15,6.2,SSW,21.9,39.1,N/A,,Overcast,210,2014-02-09 06:55:00
8:00 AM,42,33,62,29.18,22,SSW,20.1,,,,Overcast,210,2014-02-09 07:00:00
8:25 AM,42.8,33.8,70,29.18,6.2,SSW,20.7,-,N/A,,Mostly Cloudy,210,2014-02-09 07:25:00
8:55 AM,42.8,32.0,66,29.18,6.2,SSW,23.0,36.8,N/A,,Mostly Cloudy,210,2014-02-09 07:55:00
9:00 AM,43,33,56,29.19,28,SSW,24.6,,,,Partly Cloudy,210,2014-02-09 08:00:00
9:25 AM,42.8,33.8,70,29.18,6.2,SSW,24.2,41.4,N/A,,Overcast,210,2014-02-09 08:25:00
9:26 AM,42.8,33.8,70,29.18,6.2,SSW,21.9,41.4,N/A,Rain,Light Rain,210,2014-02-09 08:26:00
9:40 AM,41.0,33.8,76,29.18,6.2,SSW,21.9,-,N/A,,Light Drizzle,210,2014-02-09 08:40:00
9:55 AM,41.0,35.6,81,29.18,6.2,SSW,23.0,-,N/A,,Drizzle,210,2014-02-09 08:55:00
9:59 AM,41.0,33.8,76,29.18,6.2,SSW,25.3,-,N/A,,Drizzle,210,2014-02-09 08:59:00
10:00 AM,41,35,71,29.20,7,SSW,26.8,,,Rain,Heavy Rain,210,2014-02-09 09:00:00
10:25 AM,41.0,35.6,81,29.18,6.2,SSW,24.2,38.0,N/A,,Light Drizzle,210,2014-02-09 09:25:00
10:30 AM,41.0,35.6,81,29.18,6.2,SSW,23.0,35.7,N/A,,Light Drizzle,210,2014-02-09 09:30:00
10:40 AM,42.8,35.6,76,29.18,6.2,SSW,23.0,-,N/A,,Light Drizzle,210,2014-02-09 09:40:00
10:44 AM,42.8,35.6,76,29.18,6.2,SSW,21.9,-,N/A,,Light Drizzle,210,2014-02-09 09:44:00
10:55 AM,42.8,35.6,76,29.18,6.2,SSW,25.3,39.1,N/A,,Light Drizzle,210,2014-02-09 09:55:00
11:00 AM,42,35,68,29.21,16,SSW,24.6,,,Rain,Light Drizzle,210,2014-02-09 10:00:00
11:25 AM,42.8,35.6,76,29.21,6.2,SSW,21.9,34.5,N/A,,Overcast,210,2014-02-09 10:25:00
11:55 AM,42.8,33.8,70,29.21,6.2,SSW,21.9,35.7,N/A,,Overcast,210,2014-02-09 10:55:00
12:00 PM,44,34,58,29.24,25,SSW,22.4,,,Rain,Drizzle,210,2014-02-09 11:00:00
12:25 PM,44.6,33.8,66,29.24,6.2,SSW,20.7,35.7,N/A,,Overcast,210,2014-02-09 11:25:00
12:55 PM,44.6,33.8,66,29.24,6.2,SSW,19.6,31.1,N/A,,Overcast,210,2014-02-09 11:55:00
1:00 PM,44,34,58,29.24,19,SSW,20.1,,,,Partly Cloudy,210,2014-02-09 12:00:00
1:25 PM,44.6,33.8,66,29.24,6.2,SSW,23.0,34.5,N/A,,Mostly Cloudy,210,2014-02-09 12:25:00
1:55 PM,44.6,33.8,66,29.24,6.2,SW,19.6,31.1,N/A,,Mostly Cloudy,220,2014-02-09 12:55:00
2:00 PM,45,34,55,29.26,19,SW,20.1,,,,Overcast,220,2014-02-09 13:00:00
2:25 PM,46.4,33.8,62,29.24,6.2,SW,19.6,-,N/A,,Mostly Cloudy,220,2014-02-09 13:25:00
2:55 PM,46.4,33.8,62,29.24,6.2,SW,18.4,-,N/A,,Overcast,220,2014-02-09 13:55:00
3:00 PM,46,34,52,29.26,19,SW,17.9,,,,Scattered Clouds,220,2014-02-09 14:00:00
3:25 PM,46.4,33.8,62,29.27,6.2,SW,21.9,39.1,N/A,,Mostly Cloudy,220,2014-02-09 14:25:00
3:55 PM,46.4,33.8,62,29.27,6.2,SW,17.3,-,N/A,,Scattered Clouds,220,2014-02-09 14:55:00
4:00 PM,46,34,51,29.28,19,SW,20.1,,,,Partly Cloudy,220,2014-02-09 15:00:00
4:25 PM,46.4,33.8,62,29.27,6.2,SW,20.7,32.2,N/A,,Mostly Cloudy,220,2014-02-09 15:25:00
4:55 PM,44.6,33.8,66,29.30,6.2,SW,19.6,31.1,N/A,,Mostly Cloudy,220,2014-02-09 15:55:00
5:00 PM,44,34,58,29.30,28,SW,17.9,,,,Overcast,220,2014-02-09 16:00:00
5:25 PM,44.6,33.8,66,29.30,6.2,SW,17.3,31.1,N/A,,Overcast,230,2014-02-09 16:25:00
5:55 PM,42.8,33.8,70,29.30,6.2,SW,16.1,27.6,N/A,,Partly Cloudy,220,2014-02-09 16:55:00
6:00 PM,43,34,61,29.32,22,SW,15.7,,,,Partly Cloudy,220,2014-02-09 17:00:00
6:25 PM,42.8,33.8,70,29.33,6.2,SSW,18.4,-,N/A,,Mostly Cloudy,210,2014-02-09 17:25:00
6:55 PM,42.8,33.8,70,29.33,6.2,SSW,13.8,-,N/A,,Mostly Cloudy,210,2014-02-09 17:55:00
7:00 PM,42,33,62,29.35,25,SSW,13.4,,,,Partly Cloudy,210,2014-02-09 18:00:00
7:25 PM,42.8,33.8,70,29.33,6.2,SW,13.8,-,N/A,,Unknown,220,2014-02-09 18:25:00
7:55 PM,42.8,33.8,70,29.36,6.2,SW,13.8,-,N/A,,Partly Cloudy,220,2014-02-09 18:55:00
8:00 PM,42,33,62,29.36,22,SSW,13.4,,,,Scattered Clouds,210,2014-02-09 19:00:00
8:25 PM,41.0,33.8,76,29.36,6.2,SSW,12.7,-,N/A,,Partly Cloudy,210,2014-02-09 19:25:00
8:55 PM,41.0,33.8,76,29.36,6.2,SSW,13.8,-,N/A,,Unknown,210,2014-02-09 19:55:00
9:00 PM,40,34,70,29.37,19,SSW,13.4,,,,,210,2014-02-09 20:00:00
9:25 PM,41.0,33.8,76,29.36,6.2,SSW,12.7,-,N/A,,Mostly Cloudy,210,2014-02-09 20:25:00
9:55 PM,41.0,33.8,76,29.36,6.2,SSW,11.5,-,N/A,,Mostly Cloudy,210,2014-02-09 20:55:00
10:00 PM,41,34,68,29.38,16,SSW,13.4,,,,Mostly Cloudy,200,2014-02-09 21:00:00
10:25 PM,41.0,35.6,81,29.39,6.2,SSW,9.2,-,N/A,Rain,Light Rain,210,2014-02-09 21:25:00
10:33 PM,41.0,35.6,81,29.39,6.2,West,6.9,-,N/A,Rain,Light Rain,270,2014-02-09 21:33:00
10:49 PM,41.0,35.6,81,29.39,6.2,West,5.8,-,N/A,Rain,Light Rain,260,2014-02-09 21:49:00
10:55 PM,41.0,35.6,81,29.39,6.2,West,9.2,23.0,N/A,Rain,Light Rain,270,2014-02-09 21:55:00
11:00 PM,39,36,85,29.42,5,West,13.4,,,Rain,Light Rain Showers,280,2014-02-09 22:00:00
11:11 PM,39.2,35.6,87,29.42,6.2,West,10.4,-,N/A,Rain,Light Rain,270,2014-02-09 22:11:00
11:25 PM,39.2,35.6,87,29.42,6.2,WSW,6.9,-,N/A,Rain,Light Rain,250,2014-02-09 22:25:00
11:33 PM,39.2,35.6,87,29.42,6.2,WSW,4.6,-,N/A,Rain,Light Rain,240,2014-02-09 22:33:00
11:55 PM,37.4,35.6,93,29.42,6.2,SW,3.5,-,N/A,,Overcast,220,2014-02-09 22:55:00
11:59 PM,37.4,35.6,93,29.42,6.2,SW,3.5,-,N/A,,Overcast,220,2014-02-09 22:59:00